GW5977 Weather Reports


time (UTC)temp
C
wind
direction
speed
KPH
gust
KPH
rain 1hr
cm
rain 24hr
cm
rain mn
cm
humidity
%
barometer
mb
20260506110125 22 149 0.0 0.0 0.00 0.00 0.00 95 1008.2
20260506105621 22 149 0.0 0.0 0.00 0.00 0.00 94 1008.1
20260506105118 22 149 0.0 0.0 0.00 0.00 0.00 94 1008.1
20260506104617 22 149 0.0 1.6 0.00 0.00 0.00 94 1008.0
20260506104114 22 149 0.0 1.6 0.00 0.00 0.00 94 1007.9
20260506103611 22 150 0.0 1.6 0.00 0.00 0.00 94 1007.9
20260506103108 22 149 0.0 0.0 0.00 0.00 0.00 94 1008.0
20260506102606 22 149 0.0 0.0 0.00 0.00 0.00 94 1007.8
20260506102103 22 150 0.0 0.0 0.00 0.00 0.00 93 1007.8
20260506101600 22 150 0.0 0.0 0.00 0.00 0.00 93 1007.7
20260506101057 22 149 0.0 3.2 0.00 0.00 0.00 93 1007.6
20260506100555 22 149 0.0 3.2 0.00 0.00 0.00 93 1007.8
20260506100053 22 149 0.0 1.6 0.00 0.00 0.00 93 1007.9
20260506095551 22 149 1.6 1.6 0.00 0.00 0.00 93 1007.8
20260506095047 23 149 0.0 1.6 0.00 0.00 0.00 93 1007.9
20260506094545 23 149 0.0 0.0 0.00 0.00 0.00 93 1007.9
20260506094043 23 149 0.0 3.2 0.00 0.00 0.00 93 1007.7
20260506093541 23 149 0.0 0.0 0.00 0.00 0.00 93 1007.7
20260506093038 23 149 1.6 1.6 0.00 0.00 0.00 92 1007.8
20260506092536 23 149 0.0 0.0 0.00 0.00 0.00 92 1007.8
20260506092032 23 149 1.6 1.6 0.00 0.00 0.00 92 1007.9
20260506091531 23 149 0.0 1.6 0.00 0.00 0.00 92 1007.6
20260506091028 23 149 0.0 0.0 0.00 0.00 0.00 92 1007.5
20260506090525 23 149 0.0 1.6 0.00 0.00 0.00 92 1007.6
20260506090021 23 149 0.0 1.6 0.00 0.00 0.00 92 1007.6
20260506085519 23 149 0.0 1.6 0.00 0.00 0.00 92 1007.5
20260506085015 23 150 0.0 1.6 0.00 0.00 0.00 92 1007.8
20260506084512 23 149 0.0 3.2 0.00 0.00 0.00 91 1007.7
20260506084008 23 141 1.6 1.6 0.00 0.00 0.00 91 1007.7
20260506083505 23 136 0.0 1.6 0.00 0.00 0.00 91 1007.8
20260506083003 23 134 1.6 1.6 0.00 0.00 0.00 91 1007.8
20260506082459 23 125 0.0 0.0 0.00 0.00 0.00 91 1007.6
20260506081955 23 112 1.6 3.2 0.00 0.00 0.00 91 1007.5
20260506081454 23 131 1.6 3.2 0.00 0.00 0.00 91 1007.5
20260506080951 23 132 1.6 1.6 0.00 0.00 0.00 91 1007.6
20260506080448 23 138 1.6 3.2 0.00 0.00 0.00 91 1007.8
20260506073431 23 138 1.6 6.4 0.00 0.00 0.00 90 1007.7
20260506072929 23 143 1.6 4.8 0.00 0.00 0.00 90 1007.7
20260506072425 23 121 0.0 3.2 0.00 0.00 0.00 90 1007.8
20260506071924 23 110 3.2 6.4 0.00 0.00 0.00 90 1007.8
20260506071421 23 136 0.0 3.2 0.00 0.00 0.00 90 1007.9
20260506070918 23 129 0.0 3.2 0.00 0.00 0.00 90 1007.9
20260506070415 23 124 0.0 0.0 0.00 0.00 0.00 90 1007.8
20260506062352 23 138 1.6 4.8 0.00 0.00 0.00 88 1007.5
20260506061848 23 129 1.6 4.8 0.00 0.00 0.00 87 1007.5
20260506061345 24 106 3.2 6.4 0.00 0.00 0.00 87 1007.6
20260506060843 24 117 3.2 6.4 0.00 0.00 0.00 87 1007.5
20260506060341 24 131 3.2 6.4 0.00 0.00 0.00 86 1007.6
20260506051312 25 123 3.2 6.4 0.00 0.00 0.00 85 1007.9
20260506050810 25 146 6.4 9.7 0.00 0.00 0.00 85 1007.9
20260506050308 25 122 0.0 4.8 0.00 0.00 0.00 85 1007.7
20260506044758 25 134 0.0 3.2 0.00 0.00 0.00 84 1007.6
20260506044255 25 142 1.6 9.7 0.00 0.00 0.00 84 1007.4
20260506043752 25 142 3.2 6.4 0.00 0.00 0.00 84 1007.4
20260506043250 25 132 1.6 3.2 0.00 0.00 0.00 85 1007.6
20260506042748 25 123 1.6 6.4 0.00 0.00 0.00 84 1007.5
20260506042247 25 120 3.2 3.2 0.00 0.00 0.00 84 1007.6
20260506041745 25 132 3.2 4.8 0.00 0.00 0.00 84 1007.6
20260506041242 25 132 1.6 4.8 0.00 0.00 0.00 84 1007.5
20260506040739 25 177 6.4 9.7 0.00 0.00 0.00 84 1007.3
20260506040236 25 117 1.6 4.8 0.00 0.00 0.00 84 1007.4
20260506035732 25 137 1.6 6.4 0.00 0.00 0.00 84 1007.2
20260506035230 25 133 1.6 3.2 0.00 0.00 0.00 84 1007.3
20260506034726 25 143 3.2 4.8 0.00 0.00 0.00 84 1007.1
20260506034224 25 129 3.2 4.8 0.00 0.00 0.00 84 1007.1
20260506033721 25 109 1.6 3.2 0.00 0.00 0.00 84 1007.1
20260506033218 25 128 1.6 1.6 0.00 0.00 0.00 84 1006.9
20260506032715 25 133 0.0 1.6 0.00 0.00 0.00 84 1006.8
20260506032212 25 132 0.0 6.4 0.00 0.00 0.00 83 1006.9
20260506031708 25 141 1.6 3.2 0.00 0.00 0.00 83 1006.8
20260506031206 25 150 3.2 11.3 0.00 0.00 0.00 83 1006.7
20260506030704 25 138 0.0 1.6 0.00 0.00 0.00 83 1006.8
20260506030201 25 132 1.6 3.2 0.00 0.00 0.00 83 1006.8
20260506025657 25 133 1.6 3.2 0.00 0.00 0.00 83 1006.6
20260506025154 25 132 1.6 6.4 0.00 0.00 0.00 83 1006.5
20260506024651 25 142 0.0 3.2 0.00 0.00 0.00 83 1006.5
20260506024148 25 146 1.6 1.6 0.00 0.00 0.00 84 1006.3
20260506023644 25 146 1.6 3.2 0.00 0.00 0.00 83 1006.2
20260506023141 25 146 0.0 1.6 0.00 0.00 0.00 83 1006.1
20260506022638 25 145 1.6 3.2 0.00 0.00 0.00 83 1006.1
20260506022136 25 144 0.0 1.6 0.00 0.00 0.00 83 1006.1
20260506021634 25 128 1.6 3.2 0.00 0.00 0.00 82 1006.0
20260506021130 25 141 1.6 3.2 0.00 0.00 0.00 82 1006.1
20260506020627 25 144 3.2 6.4 0.00 0.00 0.00 82 1005.9
20260506020125 25 131 1.6 3.2 0.00 0.00 0.00 83 1006.0
20260506015623 25 127 1.6 1.6 0.00 0.00 0.00 83 1006.1
20260506015119 25 124 0.0 1.6 0.00 0.00 0.00 83 1006.0
20260506014617 25 124 0.0 0.0 0.00 0.00 0.00 82 1005.9
20260506014112 25 124 0.0 1.6 0.00 0.00 0.00 81 1006.0
20260506013611 25 124 0.0 0.0 0.00 0.00 0.00 81 1005.9
20260506013107 25 124 0.0 1.6 0.00 0.00 0.00 81 1005.9
20260506012603 25 124 1.6 1.6 0.00 0.00 0.00 81 1005.7
20260506012100 25 142 0.0 4.8 0.00 0.00 0.00 81 1005.6
20260506011558 25 130 1.6 4.8 0.00 0.00 0.00 81 1005.3
20260506011054 25 127 3.2 4.8 0.00 0.00 0.00 80 1005.3
20260506010554 26 125 0.0 3.2 0.00 0.00 0.00 80 1005.3
20260506010050 26 119 3.2 6.4 0.00 0.00 0.00 79 1005.1
20260506005547 26 145 1.6 6.4 0.00 0.00 0.00 80 1005.1
20260506005043 26 138 3.2 3.2 0.00 0.00 0.00 79 1005.1
20260506004540 26 143 1.6 1.6 0.00 0.00 0.00 79 1005.0
20260506004037 26 129 1.6 3.2 0.00 0.00 0.00 78 1004.8
20260506003533 26 136 3.2 9.7 0.00 0.00 0.00 78 1004.7
20260506003029 26 141 1.6 1.6 0.00 0.00 0.00 77 1004.9
20260506002526 26 123 1.6 3.2 0.00 0.00 0.00 76 1004.9
20260506002021 27 140 1.6 3.2 0.00 0.00 0.00 76 1004.8
20260506001518 27 132 1.6 3.2 0.00 0.00 0.00 75 1004.8
20260506001015 27 145 4.8 11.3 0.00 0.00 0.00 74 1004.7
20260506000513 27 148 4.8 11.3 0.00 0.00 0.00 74 1004.7
20260506000010 27 117 1.6 4.8 0.00 0.00 0.00 75 1004.9
20260505235508 27 139 8.0 12.9 0.00 0.00 0.00 74 1004.8
20260505235004 27 134 1.6 6.4 0.00 0.00 0.00 74 1004.6
20260505234501 27 126 3.2 4.8 0.00 0.00 0.00 73 1004.6
20260505233958 27 133 8.0 12.9 0.00 0.00 0.00 73 1004.5
20260505233456 27 142 3.2 9.7 0.00 0.00 0.00 73 1004.8
20260505232953 27 158 4.8 12.9 0.00 0.00 0.00 72 1004.7
20260505232451 27 120 1.6 9.7 0.00 0.00 0.00 73 1004.6
20260505231948 27 139 3.2 9.7 0.00 0.00 0.00 73 1004.6
20260505231445 28 135 0.0 4.8 0.00 0.00 0.00 73 1004.8
20260505230943 28 110 3.2 6.4 0.00 0.00 0.00 72 1004.4
20260505230441 28 127 6.4 14.5 0.00 0.00 0.00 72 1004.7
20260505225937 28 167 1.6 4.8 0.00 0.00 0.00 73 1004.5
20260505225434 28 166 6.4 11.3 0.00 0.00 0.00 72 1004.6
20260505224929 28 127 4.8 11.3 0.00 0.00 0.00 71 1004.4
20260505224427 28 142 3.2 16.1 0.00 0.00 0.00 70 1004.4
20260505223924 28 133 3.2 12.9 0.00 0.00 0.00 71 1004.4
20260505223421 28 118 0.0 4.8 0.00 0.00 0.00 71 1004.5
20260505222917 28 134 3.2 11.3 0.00 0.00 0.00 71 1004.7
20260505222413 28 143 4.8 11.3 0.00 0.00 0.00 69 1004.7
20260505221910 29 130 3.2 11.3 0.00 0.00 0.00 69 1004.8
20260505221407 29 138 3.2 6.4 0.00 0.00 0.00 69 1004.7
20260505220904 28 133 3.2 6.4 0.00 0.00 0.00 70 1004.7
20260505220401 28 164 4.8 9.7 0.00 0.00 0.00 70 1004.8
20260505215858 28 112 1.6 6.4 0.00 0.00 0.00 70 1004.7
20260505215356 28 151 8.0 11.3 0.00 0.00 0.00 68 1004.7
20260505214855 29 114 3.2 17.7 0.00 0.00 0.00 69 1004.7
20260505214352 28 138 11.3 14.5 0.00 0.00 0.00 68 1005.0
20260505213849 29 155 6.4 14.5 0.00 0.00 0.00 69 1004.8
20260505213347 29 166 4.8 9.7 0.00 0.00 0.00 69 1004.9
20260505212842 29 131 4.8 11.3 0.00 0.00 0.00 68 1005.0
20260505212339 29 133 4.8 12.9 0.00 0.00 0.00 67 1004.8
20260505211836 28 149 9.7 14.5 0.00 0.00 0.00 67 1005.1
20260505211334 28 141 4.8 20.9 0.00 0.00 0.00 69 1005.0
20260505210830 28 96 0.0 16.1 0.00 0.00 0.00 69 1005.0
20260505210327 29 55 4.8 11.3 0.00 0.00 0.00 68 1005.0
20260505205823 29 197 4.8 9.7 0.00 0.00 0.00 68 1005.3
20260505205322 28 134 3.2 9.7 0.00 0.00 0.00 68 1005.1
20260505204818 28 97 3.2 14.5 0.00 0.00 0.00 69 1005.3
20260505204316 28 127 4.8 14.5 0.00 0.00 0.00 68 1005.5
20260505203813 28 123 11.3 16.1 0.00 0.00 0.00 68 1005.6
20260505203310 29 117 8.0 20.9 0.00 0.00 0.00 68 1005.3
20260505202806 28 164 4.8 9.7 0.00 0.00 0.00 69 1005.6
20260505202305 28 148 4.8 14.5 0.00 0.00 0.00 69 1005.8
20260505201759 28 106 6.4 16.1 0.00 0.00 0.00 69 1005.9
20260505201256 28 177 11.3 16.1 0.00 0.00 0.00 69 1005.8
20260505200755 29 147 1.6 9.7 0.00 0.00 0.00 70 1006.0
20260505200251 28 103 6.4 12.9 0.00 0.00 0.00 70 1006.0
20260505195746 28 91 4.8 16.1 0.00 0.00 0.00 70 1006.0
20260505195244 28 142 4.8 17.7 0.00 0.00 0.00 70 1006.1
20260505194741 28 175 8.0 12.9 0.00 0.00 0.00 69 1006.3
20260505194238 29 209 11.3 17.7 0.00 0.00 0.00 68 1006.3
20260505193733 29 121 8.0 12.9 0.00 0.00 0.00 68 1006.3
20260505193231 29 133 6.4 14.5 0.00 0.00 0.00 68 1006.4
20260505192730 29 123 3.2 9.7 0.00 0.00 0.00 69 1006.4
20260505192227 28 139 6.4 12.9 0.00 0.00 0.00 70 1006.5
20260505191725 28 159 12.9 17.7 0.00 0.00 0.00 69 1006.4
20260505191224 28 116 1.6 9.7 0.00 0.00 0.00 72 1006.6
20260505190719 28 124 3.2 9.7 0.00 0.00 0.00 71 1006.6
20260505190219 28 97 3.2 14.5 0.00 0.00 0.00 72 1006.8
20260505185716 28 166 6.4 12.9 0.00 0.00 0.00 72 1006.7
20260505185212 28 121 9.7 12.9 0.00 0.00 0.00 72 1006.7
20260505184708 28 141 3.2 17.7 0.00 0.00 0.00 72 1006.8
20260505184206 28 64 3.2 14.5 0.00 0.00 0.00 71 1006.8
20260505183702 28 111 8.0 14.5 0.00 0.00 0.00 71 1007.0
20260505183200 28 125 6.4 9.7 0.00 0.00 0.00 73 1007.0
20260505182655 27 148 4.8 11.3 0.00 0.00 0.00 73 1007.2
20260505182153 27 72 3.2 12.9 0.00 0.00 0.00 75 1007.2
20260505181649 27 112 11.3 16.1 0.00 0.00 0.00 72 1007.2
20260505181147 27 115 1.6 16.1 0.00 0.00 0.00 75 1007.2
20260505180643 27 124 3.2 16.1 0.00 0.00 0.00 75 1007.1
20260505180141 27 107 4.8 4.8 0.00 0.00 0.00 76 1007.1
20260505175637 27 166 14.5 17.7 0.00 0.00 0.00 75 1007.4
20260505175133 27 120 4.8 16.1 0.00 0.00 0.00 76 1007.2
20260505174630 26 126 1.6 16.1 0.00 0.00 0.00 77 1007.2
20260505174126 26 116 4.8 12.9 0.00 0.00 0.00 76 1007.2
20260505173623 26 120 4.8 14.5 0.00 0.00 0.00 78 1007.3
20260505173119 26 132 3.2 11.3 0.00 0.00 0.00 78 1007.3
20260505172617 26 120 3.2 6.4 0.00 0.00 0.00 78 1007.3
20260505172114 26 107 3.2 12.9 0.00 0.00 0.00 77 1007.5
20260505171608 26 144 6.4 11.3 0.00 0.00 0.00 78 1007.4
20260505171106 26 106 1.6 11.3 0.00 0.00 0.00 79 1007.4
20260505170602 26 124 3.2 4.8 0.00 0.00 0.00 79 1007.6
20260505170059 26 120 1.6 6.4 0.00 0.00 0.00 79 1007.7
20260505165554 26 138 1.6 6.4 0.00 0.00 0.00 80 1007.6
20260505165050 25 134 3.2 4.8 0.00 0.00 0.00 80 1007.6
20260505164546 25 109 3.2 9.7 0.00 0.00 0.00 80 1007.6
20260505164044 25 120 0.0 9.7 0.00 0.00 0.00 82 1007.7
20260505163542 25 96 6.4 11.3 0.00 0.00 0.00 82 1007.5
20260505163039 24 85 3.2 9.7 0.00 0.00 0.00 83 1007.6
20260505162538 24 117 6.4 12.9 0.00 0.00 0.00 83 1007.7
20260505162035 24 120 3.2 14.5 0.00 0.00 0.00 83 1007.8
20260505161532 24 154 6.4 11.3 0.00 0.00 0.00 83 1007.8
20260505161029 24 141 1.6 9.7 0.00 0.00 0.00 83 1007.7
20260505160527 24 147 4.8 6.4 0.00 0.00 0.00 84 1007.7
20260505153003 23 101 0.0 6.4 0.00 0.00 0.00 86 1007.6
20260505152500 23 148 9.7 14.5 0.00 0.00 0.00 85 1007.7
20260505151955 23 171 4.8 9.7 0.00 0.00 0.00 85 1007.7
20260505151451 23 131 9.7 16.1 0.00 0.00 0.00 85 1007.7
20260505150948 23 124 3.2 4.8 0.00 0.00 0.00 86 1007.6
20260505150445 23 144 1.6 6.4 0.00 0.00 0.00 87 1007.5
20260505140415 22 186 3.2 6.4 0.00 0.00 0.00 87 1007.5
20260505124829 21 138 6.4 11.3 0.00 0.00 0.00 88 1007.1
20260505124325 21 137 9.7 16.1 0.00 0.00 0.00 88 1007.1
20260505123821 21 118 3.2 9.7 0.00 0.00 0.00 88 1007.0
20260505123318 21 136 3.2 12.9 0.00 0.00 0.00 89 1007.2
20260505122814 21 124 0.0 6.4 0.00 0.00 0.00 89 1007.3
20260505122312 21 116 0.0 9.7 0.00 0.00 0.00 89 1007.1
20260505121808 21 127 1.6 6.4 0.00 0.00 0.00 90 1007.1
20260505121305 21 118 1.6 6.4 0.00 0.00 0.00 89 1007.0
20260505120801 21 111 0.0 9.7 0.00 0.00 0.00 90 1007.0
20260505120258 21 127 6.4 6.4 0.00 0.00 0.00 90 1006.7
20260505115756 21 120 4.8 11.3 0.00 0.00 0.00 90 1006.7
20260505115254 21 138 6.4 9.7 0.00 0.00 0.00 90 1006.7
20260505114751 21 131 1.6 9.7 0.00 0.00 0.00 90 1006.4
20260505114247 21 125 1.6 6.4 0.00 0.00 0.00 90 1006.4
20260505113744 21 135 1.6 6.4 0.00 0.00 0.00 90 1006.4
20260505113241 21 132 4.8 9.7 0.00 0.00 0.00 90 1006.3
20260505112737 21 124 1.6 9.7 0.00 0.00 0.00 90 1006.4
20260505112235 21 135 3.2 3.2 0.00 0.00 0.00 90 1006.6
20260505111734 20 124 6.4 9.7 0.00 0.00 0.00 90 1006.6
20260505111231 20 120 1.6 6.4 0.00 0.00 0.00 90 1006.7
20260505110726 20 132 3.2 9.7 0.00 0.00 0.00 90 1006.6